N0ZMJ-4 Weather Reports


Display with metric or nautical units.
time (UTC)temp
F
wind
direction
speed
MPH
gust
MPH
rain 1hr
in
rain 24hr
in
rain mn
in
humidity
%
barometer
mb
20260502200003 67 233 4.0 17.0 0.00 0.00 0.00 40 1012.2
20260502195503 67 224 8.0 15.0 0.00 0.00 0.00 38 1012.4
20260502195002 67 248 7.0 18.0 0.00 0.00 0.00 38 1012.4
20260502194503 67 218 9.0 18.0 0.00 0.00 0.00 39 1012.4
20260502194002 67 224 8.0 17.0 0.00 0.00 0.00 40 1012.3
20260502193503 66 216 7.0 14.0 0.00 0.00 0.00 40 1012.5
20260502193002 66 230 7.0 14.0 0.00 0.00 0.00 41 1012.6
20260502192503 65 216 9.0 17.0 0.00 0.00 0.00 42 1012.7
20260502192003 64 223 7.0 17.0 0.00 0.00 0.00 43 1012.9
20260502191503 64 232 4.0 14.0 0.00 0.00 0.00 43 1013.1
20260502191003 64 223 7.0 14.0 0.00 0.00 0.00 42 1013.2
20260502190503 64 213 6.0 13.0 0.00 0.00 0.00 42 1013.5
20260502190003 64 234 8.0 15.0 0.00 0.00 0.00 40 1013.6
20260502185502 65 228 8.0 18.0 0.00 0.00 0.00 42 1013.6
20260502185003 65 216 8.0 18.0 0.00 0.00 0.00 43 1013.7
20260502184502 65 216 6.0 14.0 0.00 0.00 0.00 44 1013.8
20260502184003 65 232 7.0 13.0 0.00 0.00 0.00 41 1013.7
20260502183502 65 225 7.0 16.0 0.00 0.00 0.00 44 1013.9
20260502183003 65 229 8.0 16.0 0.00 0.00 0.00 44 1014.0
20260502182503 64 238 7.0 13.0 0.00 0.00 0.00 45 1014.0
20260502182003 64 252 6.0 19.0 0.00 0.00 0.00 44 1014.1
20260502181503 63 241 7.0 19.0 0.00 0.00 0.00 45 1014.3
20260502181003 63 244 6.0 15.0 0.00 0.00 0.00 45 1014.4
20260502180503 63 250 6.0 15.0 0.00 0.00 0.00 45 1014.4
20260502170502 61 243 7.0 17.0 0.00 0.00 0.00 45 1015.3
20260502164003 60 250 5.0 15.0 0.00 0.00 0.00 49 1015.5
20260502163502 60 244 6.0 14.0 0.00 0.00 0.00 48 1015.6
20260502163003 60 237 6.0 13.0 0.00 0.00 0.00 49 1015.7
20260502162503 59 232 5.0 12.0 0.00 0.00 0.00 52 1015.7
20260502162003 59 242 5.0 12.0 0.00 0.00 0.00 50 1015.8
20260502161503 59 248 4.0 10.0 0.00 0.00 0.00 51 1015.8
20260502161003 58 249 4.0 10.0 0.00 0.00 0.00 52 1015.8
20260502160503 58 248 4.0 14.0 0.00 0.00 0.00 52 1015.7
20260502152003 56 241 5.0 11.0 0.00 0.00 0.00 55 1016.2
20260502151503 56 253 4.0 9.0 0.00 0.00 0.00 55 1016.2
20260502151003 55 222 3.0 10.0 0.00 0.00 0.00 56 1016.1
20260502150503 55 235 6.0 11.0 0.00 0.00 0.00 55 1016.2
20260502130502 42 227 3.0 8.0 0.00 0.00 0.00 73 1017.1
20260502123503 38 240 1.0 3.0 0.00 0.00 0.00 79 1017.3
20260502123003 37 240 1.0 3.0 0.00 0.00 0.00 79 1017.2
20260502122503 37 240 1.0 4.0 0.00 0.00 0.00 79 1017.2
20260502122003 37 240 2.0 4.0 0.00 0.00 0.00 79 1017.3
20260502121503 36 240 1.0 3.0 0.00 0.00 0.00 80 1017.3
20260502121002 36 240 1.0 3.0 0.00 0.00 0.00 79 1017.4
20260502120503 36 240 1.0 4.0 0.00 0.00 0.00 80 1017.3
20260502115503 35 240 1.0 4.0 0.00 0.00 0.00 79 1017.4
20260502115003 35 240 1.0 4.0 0.00 0.00 0.00 79 1017.4
20260502114502 35 240 0.0 1.0 0.00 0.00 0.00 79 1017.5
20260502114003 35 240 0.0 2.0 0.00 0.00 0.00 79 1017.5
20260502113502 36 240 1.0 2.0 0.00 0.00 0.00 78 1017.5
20260502113003 36 240 1.0 2.0 0.00 0.00 0.00 78 1017.5
20260502112502 36 240 1.0 2.0 0.00 0.00 0.00 78 1017.5
20260502112003 36 240 1.0 3.0 0.00 0.00 0.00 78 1017.5
20260502111503 36 240 1.0 3.0 0.00 0.00 0.00 78 1017.5
20260502111002 36 240 1.0 3.0 0.00 0.00 0.00 77 1017.4
20260502110503 36 240 1.0 2.0 0.00 0.00 0.00 77 1017.4
20260502110002 36 240 1.0 3.0 0.00 0.00 0.00 77 1017.5
20260502105503 36 240 2.0 3.0 0.00 0.00 0.00 77 1017.5
20260502105003 37 240 1.0 4.0 0.00 0.00 0.00 77 1017.5
20260502104503 37 240 2.0 5.0 0.00 0.00 0.00 77 1017.5
20260502104003 37 240 2.0 5.0 0.00 0.00 0.00 77 1017.5
20260502103502 37 240 2.0 5.0 0.00 0.00 0.00 77 1017.6
20260502103003 37 240 3.0 5.0 0.00 0.00 0.00 77 1017.8
20260502102502 37 240 2.0 5.0 0.00 0.00 0.00 77 1017.7
20260502102003 37 240 2.0 5.0 0.00 0.00 0.00 78 1017.8
20260502101503 36 240 3.0 4.0 0.00 0.00 0.00 78 1017.7
20260502101003 36 240 2.0 5.0 0.00 0.00 0.00 78 1017.8
20260502100503 36 242 2.0 5.0 0.00 0.00 0.00 78 1017.8
20260502091502 36 277 1.0 4.0 0.00 0.00 0.00 78 1017.9
20260502091003 36 277 1.0 3.0 0.00 0.00 0.00 78 1017.9
20260502090503 36 277 1.0 2.0 0.00 0.00 0.00 78 1018.0
20260502071503 34 357 0.0 1.0 0.00 0.00 0.00 82 1018.0
20260502071003 34 357 0.0 1.0 0.00 0.00 0.00 82 1018.2
20260502070503 34 357 0.0 1.0 0.00 0.00 0.00 82 1018.2
20260502070003 34 357 0.0 2.0 0.00 0.00 0.00 82 1018.2
20260502065503 34 357 1.0 2.0 0.00 0.00 0.00 81 1018.2
20260502065003 34 358 0.0 0.0 0.00 0.00 0.00 81 1018.2
20260502064502 34 358 0.0 0.0 0.00 0.00 0.00 81 1018.3
20260502064003 35 358 0.0 1.0 0.00 0.00 0.00 81 1018.3
20260502063502 35 357 0.0 2.0 0.00 0.00 0.00 81 1018.3
20260502063003 35 358 0.0 2.0 0.00 0.00 0.00 81 1018.3
20260502062503 35 357 0.0 1.0 0.00 0.00 0.00 81 1018.4
20260502062003 35 357 0.0 2.0 0.00 0.00 0.00 81 1018.4
20260502061503 35 357 1.0 2.0 0.00 0.00 0.00 80 1018.4
20260502061004 35 358 0.0 1.0 0.00 0.00 0.00 80 1018.4
20260502060503 35 357 0.0 1.0 0.00 0.00 0.00 80 1018.4
20260502060002 35 357 0.0 1.0 0.00 0.00 0.00 80 1018.5
20260502055503 35 358 0.0 0.0 0.00 0.00 0.00 80 1018.5
20260502055002 36 358 0.0 1.0 0.00 0.00 0.00 79 1018.5
20260502054503 36 357 0.0 1.0 0.00 0.00 0.00 79 1018.5
20260502054003 36 358 0.0 2.0 0.00 0.00 0.00 79 1018.6
20260502053503 36 357 1.0 2.0 0.00 0.00 0.00 78 1018.7
20260502053003 37 357 0.0 2.0 0.00 0.00 0.00 78 1018.6
20260502052503 37 358 0.0 0.0 0.00 0.00 0.00 77 1018.5
20260502052003 37 358 0.0 0.0 0.00 0.00 0.00 78 1018.6
20260502051502 37 358 0.0 0.0 0.00 0.00 0.00 77 1018.5
20260502051003 37 358 0.0 0.0 0.00 0.00 0.00 77 1018.5
20260502050502 37 358 0.0 0.0 0.00 0.00 0.00 76 1018.5
20260502050003 37 358 0.0 0.0 0.00 0.00 0.00 75 1018.5
20260502045502 38 358 0.0 0.0 0.00 0.00 0.00 75 1018.5
20260502045003 38 358 0.0 0.0 0.00 0.00 0.00 74 1018.5
20260502044503 38 358 0.0 0.0 0.00 0.00 0.00 73 1018.6
20260502044002 38 358 0.0 0.0 0.00 0.00 0.00 73 1018.5
20260502043503 39 358 0.0 0.0 0.00 0.01 0.00 73 1018.6
20260502043002 39 358 0.0 0.0 0.00 0.01 0.00 72 1018.5
20260502042503 39 358 0.0 0.0 0.00 0.01 0.00 72 1018.4
20260502042003 39 358 0.0 0.0 0.00 0.01 0.00 72 1018.5
20260502041503 39 358 0.0 0.0 0.00 0.02 0.00 71 1018.6
20260502041003 40 358 0.0 0.0 0.00 0.03 0.00 70 1018.6
20260502040503 40 358 0.0 0.0 0.00 0.03 0.00 70 1018.6
20260502040003 40 358 0.0 0.0 0.00 0.03 0.00 69 1018.6
20260502035502 40 358 0.0 0.0 0.00 0.03 0.00 68 1018.5
20260502035003 41 358 0.0 0.0 0.00 0.03 0.00 69 1018.6
20260502034502 41 358 0.0 0.0 0.00 0.03 0.00 68 1018.5
20260502034003 41 358 0.0 0.0 0.00 0.03 0.00 67 1018.6
20260502033502 42 358 0.0 0.0 0.00 0.03 0.00 65 1018.6
20260502033003 42 358 0.0 0.0 0.00 0.03 0.00 63 1018.5
20260502032503 42 358 0.0 0.0 0.00 0.03 0.00 62 1018.5
20260502032003 42 358 0.0 0.0 0.00 0.03 0.00 62 1018.5
20260502031503 43 358 0.0 0.0 0.00 0.03 0.00 61 1018.4
20260502031002 43 358 0.0 0.0 0.00 0.03 0.00 61 1018.4
20260502030503 43 358 0.0 0.0 0.00 0.03 0.00 60 1018.4
20260502030003 43 358 0.0 0.0 0.00 0.03 0.00 60 1018.3
20260502025503 43 358 0.0 0.0 0.00 0.03 0.00 59 1018.3
20260502025003 44 358 0.0 0.0 0.00 0.03 0.00 59 1018.2
20260502024503 44 358 0.0 1.0 0.00 0.03 0.00 59 1018.2
20260502024003 44 358 0.0 1.0 0.00 0.03 0.00 58 1018.1
20260502023503 44 357 0.0 1.0 0.00 0.03 0.00 57 1018.1
20260502023003 44 358 0.0 0.0 0.00 0.03 0.00 58 1018.0
20260502022503 45 358 0.0 0.0 0.00 0.03 0.00 57 1018.0
20260502022003 45 358 0.0 2.0 0.00 0.03 0.00 56 1017.9
20260502021502 46 357 0.0 4.0 0.00 0.03 0.00 55 1017.9
20260502021003 46 357 0.0 4.0 0.00 0.03 0.00 54 1017.9
20260502020502 47 311 1.0 3.0 0.00 0.03 0.00 52 1017.8
20260502020003 47 311 1.0 3.0 0.00 0.03 0.00 52 1017.8
20260502015502 47 311 1.0 4.0 0.00 0.03 0.00 52 1017.8
20260502015003 47 311 2.0 4.0 0.00 0.03 0.00 51 1017.7
20260502014503 47 311 1.0 3.0 0.00 0.03 0.00 52 1017.6
20260502014002 48 311 0.0 5.0 0.00 0.03 0.00 52 1017.7
20260502013503 48 311 1.0 5.0 0.00 0.03 0.00 51 1017.6
20260502013002 48 353 0.0 5.0 0.00 0.03 0.00 51 1017.6
20260502012503 49 316 1.0 5.0 0.00 0.03 0.00 50 1017.8
20260502012002 49 300 1.0 5.0 0.00 0.03 0.00 50 1017.7
20260502011503 49 321 2.0 4.0 0.00 0.03 0.00 49 1017.6
20260502011003 50 322 1.0 6.0 0.00 0.03 0.00 50 1017.6
20260502010503 50 318 2.0 6.0 0.00 0.03 0.00 50 1017.6
20260502010003 50 318 2.0 7.0 0.00 0.03 0.00 49 1017.6
20260502005502 50 315 2.0 7.0 0.00 0.03 0.00 49 1017.5
20260502005003 51 337 2.0 6.0 0.00 0.03 0.00 49 1017.5
20260502004502 51 323 3.0 5.0 0.00 0.03 0.00 49 1017.4
20260502004003 51 340 2.0 6.0 0.00 0.03 0.00 49 1017.4
20260502003502 51 323 1.0 6.0 0.00 0.03 0.00 49 1017.4
20260502003003 51 350 4.0 8.0 0.00 0.03 0.00 48 1017.4
20260502002503 52 7 4.0 8.0 0.00 0.03 0.00 48 1017.3
20260502002002 52 7 1.0 5.0 0.00 0.03 0.00 49 1017.4
20260502001503 52 353 2.0 5.0 0.00 0.03 0.00 49 1017.3
20260502001002 52 15 2.0 6.0 0.00 0.03 0.00 48 1017.4
20260502000503 52 4 3.0 6.0 0.00 0.03 0.00 47 1017.3
20260502000003 52 22 3.0 8.0 0.00 0.03 0.00 47 1017.4
20260501235503 52 14 4.0 10.0 0.00 0.03 0.00 48 1017.4
20260501235003 52 341 4.0 10.0 0.00 0.03 0.00 47 1017.3
20260501234503 52 348 3.0 7.0 0.00 0.03 0.00 46 1017.2
20260501234003 52 301 2.0 7.0 0.00 0.03 0.00 46 1017.3
20260501233502 52 314 3.0 7.0 0.00 0.03 0.00 48 1017.2
20260501233003 53 359 3.0 7.0 0.00 0.03 0.00 46 1017.2
20260501232502 53 324 2.0 8.0 0.00 0.03 0.00 48 1017.2
20260501232003 53 348 4.0 8.0 0.00 0.03 0.00 46 1017.3
20260501231502 53 1 2.0 8.0 0.00 0.03 0.00 47 1017.3
20260501231003 52 346 4.0 8.0 0.00 0.03 0.00 45 1017.3
20260501230502 52 317 3.0 10.0 0.00 0.03 0.00 45 1017.3
20260501230003 52 340 6.0 10.0 0.00 0.03 0.00 46 1017.4
20260501225503 52 347 7.0 10.0 0.00 0.03 0.00 46 1017.3
20260501225002 52 344 5.0 9.0 0.00 0.03 0.00 46 1017.3
20260501224503 52 304 2.0 10.0 0.00 0.03 0.00 49 1017.4
20260501224002 51 316 3.0 10.0 0.00 0.03 0.00 47 1017.4
20260501223503 51 334 4.0 8.0 0.00 0.03 0.00 49 1017.4
20260501223002 51 357 4.0 8.0 0.00 0.03 0.00 47 1017.3
20260501222503 51 350 4.0 7.0 0.00 0.03 0.00 47 1017.4
20260501222003 51 308 3.0 7.0 0.00 0.03 0.00 50 1017.4
20260501221503 51 337 3.0 13.0 0.00 0.03 0.00 48 1017.5
20260501221003 52 331 4.0 13.0 0.00 0.03 0.00 47 1017.5
20260501220503 53 323 2.0 9.0 0.00 0.03 0.00 48 1017.4
20260501220003 53 319 4.0 13.0 0.00 0.03 0.00 47 1017.4
20260501215502 53 343 4.0 13.0 0.00 0.03 0.00 49 1017.3
20260501215003 53 13 6.0 11.0 0.00 0.03 0.00 48 1017.3
20260501214502 53 350 5.0 11.0 0.00 0.03 0.00 49 1017.4
20260501214003 52 343 4.0 9.0 0.00 0.03 0.00 48 1017.3
20260501213503 52 337 2.0 9.0 0.00 0.03 0.00 50 1017.4
20260501213003 52 359 4.0 9.0 0.00 0.03 0.00 48 1017.6
20260501212503 53 358 5.0 12.0 0.00 0.03 0.00 48 1017.5
20260501212003 52 343 4.0 12.0 0.00 0.03 0.00 50 1017.5
20260501211503 52 41 4.0 10.0 0.00 0.03 0.00 50 1017.5
20260501211002 52 1 5.0 10.0 0.00 0.03 0.00 50 1017.6
20260501210503 52 1 3.0 12.0 0.00 0.03 0.00 49 1017.6
20260501210002 52 347 5.0 12.0 0.00 0.03 0.00 50 1017.7
20260501205503 51 58 4.0 10.0 0.00 0.03 0.00 49 1017.7
20260501205003 51 23 5.0 10.0 0.00 0.03 0.00 50 1017.7
20260501204503 52 3 4.0 9.0 0.00 0.03 0.00 50 1017.9
20260501204003 51 17 4.0 9.0 0.00 0.03 0.00 51 1017.8
20260501203503 51 16 4.0 11.0 0.00 0.03 0.00 50 1017.9
20260501203003 52 4 3.0 11.0 0.00 0.03 0.00 51 1017.8
20260501202502 52 6 3.0 8.0 0.00 0.03 0.00 51 1017.8
20260501202003 51 326 3.0 10.0 0.00 0.03 0.00 51 1017.9
20260501201502 52 336 4.0 10.0 0.00 0.03 0.00 52 1017.9
20260501201003 51 339 3.0 12.0 0.00 0.03 0.00 53 1017.8
20260501200503 51 1 6.0 12.0 0.00 0.03 0.00 53 1017.9